EDT,Max TemperatureF,Mean TemperatureF,Min TemperatureF,Max Dew PointF,MeanDew PointF,Min DewpointF,Max Humidity, Mean Humidity, Min Humidity, Max Sea Level PressureIn, Mean Sea Level PressureIn, Min Sea Level PressureIn, Max VisibilityMiles, Mean VisibilityMiles, Min VisibilityMiles, Max Wind SpeedMPH, Mean Wind SpeedMPH, Max Gust SpeedMPH,PrecipitationIn, CloudCover, Events, WindDirDegrees
2013-10-1,84,67,49,62,55,49,97,67,37,30.14,30.08,30.03,10,10,8,9,2,13,0.00,0,,8
2013-10-2,87,71,54,63,58,54,100,68,35,30.14,30.10,30.05,10,8,2,9,1,12,0.00,1,,258
2013-10-3,87,72,57,63,59,56,97,67,37,30.15,30.11,30.07,10,8,2,12,2,17,0.00,0,,174
2013-10-4,88,74,60,68,62,58,100,69,37,30.16,30.11,30.06,10,6,0,6,1,9,0.00,2,Fog,155
2013-10-5,89,75,60,67,62,58,100,68,36,30.13,30.09,30.04,10,5,0,9,2,13,0.00,3,Fog,149
2013-10-6,89,76,63,72,68,62,100,77,53,30.07,30.03,29.94,10,6,0,13,4,16,0.01,4,Fog,134
2013-10-7,79,74,68,73,71,70,94,85,76,29.93,29.89,29.85,10,9,2,22,5,28,0.12,5,Rain,150
2013-10-8,68,63,57,70,56,50,93,79,65,30.14,30.05,29.91,10,10,6,25,13,36,0.03,8,Rain,23
2013-10-9,69,64,58,59,55,52,87,77,67,30.12,30.08,30.05,10,9,2,21,13,29,T,7,Rain,8
2013-10-10,65,61,57,59,56,52,90,81,72,30.03,29.99,29.94,10,10,9,16,9,23,0.00,8,,329
2013-10-11,78,71,63,62,59,57,90,72,54,29.97,29.94,29.91,10,10,10,14,5,25,0.00,7,,324
2013-10-12,77,68,58,64,61,57,100,80,60,30.06,30.01,29.95,10,10,8,13,5,17,T,7,,357
2013-10-13,73,69,65,65,64,63,100,87,73,30.15,30.11,30.05,10,8,2,13,8,18,T,8,Rain,4
2013-10-14,70,65,60,65,63,58,100,89,78,30.18,30.15,30.12,10,8,2,16,10,21,0.00,8,,25
2013-10-15,75,66,56,63,58,54,100,79,57,30.16,30.09,30.03,10,10,8,16,7,20,0.00,5,,21
2013-10-16,71,64,57,63,61,58,100,84,68,30.05,30.01,29.97,10,10,10,9,3,10,0.00,7,,11
2013-10-17,83,70,56,65,60,55,100,76,51,29.98,29.93,29.87,10,8,2,14,4,17,0.00,2,,223
2013-10-18,70,67,63,66,59,52,100,79,58,30.02,29.96,29.89,10,9,5,15,4,18,T,8,,41
2013-10-19,78,70,61,66,62,56,100,80,60,29.96,29.91,29.86,10,7,1,10,2,18,0.11,7,Rain,260
2013-10-20,70,59,48,58,49,41,100,70,40,30.11,30.02,29.92,10,10,9,18,4,22,0.00,2,,18
2013-10-21,71,57,42,53,47,43,100,70,40,30.15,30.09,30.01,10,9,4,9,1,12,0.00,0,,68
2013-10-22,68,62,55,60,56,53,97,83,68,30.03,29.93,29.83,10,9,6,8,2,10,T,5,,226
2013-10-23,74,59,43,58,51,31,93,60,27,30.02,29.78,29.71,10,7,2,23,10,29,0.00,4,,258
2013-10-24,64,50,36,43,33,28,89,58,27,30.19,30.12,30.03,10,10,10,15,5,20,0.00,1,,318
2013-10-25,61,47,33,42,32,26,96,62,27,30.37,30.28,30.17,10,10,10,16,6,23,0.00,3,,20
2013-10-26,64,47,29,35,30,24,92,58,23,30.36,30.25,30.12,10,10,7,10,2,15,0.00,0,,261
2013-10-27,72,54,36,46,39,34,93,63,33,30.15,30.10,30.06,10,10,10,9,1,13,0.00,0,,292
2013-10-28,71,58,44,57,51,43,100,79,57,30.27,30.22,30.13,10,7,0,8,2,10,T,2,Fog,256
2013-10-29,77,61,45,56,49,45,100,69,38,30.33,30.28,30.24,10,4,0,8,1,9,0.00,4,Fog,18
2013-10-30,80,65,49,59,52,48,100,70,39,30.32,30.27,30.17,10,4,0,12,2,18,0.00,4,Fog,182
2013-10-31,79,65,50,65,54,50,100,71,42,30.21,30.15,29.97,10,5,0,14,4,23,0.09,2,Fog,188